Showing default

FORMOSAT7-3/COSMIC2-3, 44343

Orbit data source: Space-Track

FORMOSAT7-3/COSMIC2-3, 44343 is a payload satellite owned by NSPO (TW) in LEO that was launched on Tue, 25 Jun 2019 UTC via an FALCON HEAVY launch vehicle from the Air Force Eastern Test Range (AFETR). Payload-class satellites include a variety of spacecraft equipped with specific instruments for various scientific and technological missions. These include communications satellites like Starlink; space stations such as the ISS; scientific satellites like the Hubble; Earth observation satellites from companies like Planet Labs, Umbra, and HawkEye 360; GPS; miniature CubeSats for education and research; and military/defense satellites.

Not visible in the next 10 days
Identifier
44343, 2019-036E
Orbit
LEO
Country
Flag of TWTW / TWN
Related business
Manufacturer
SSTL (Astrium)
Mission
Operational Civil Weather
Bus & Motor
SSTL-100, Unknown motor
Mass
278 kg wet, 278 kg dry
Launch date (UTC)
2019-06-25 (6 years ago)
Launch vehicle
FALCON HEAVY
Launch site
Air Force Eastern Test Range (AFETR)
Object type
Payload
Rocket body
Debris
Shape & HBR
Box + 1 Pan, 1.5 m
Radar Cross Section
2.189 m², Large (>1 m²)

Expand to show TLE details & history
Last TLE update: 6 hours ago

TLE from 6 hours ago
0 FORMOSAT7-3/COSMIC2-3
1 44343U 19036E   25343.46332306  .00008496  00000-0  51898-3 0  9992
2 44343  24.0002  42.5335 0000976 149.9653 210.0906 15.07803251354551
Epoch: 2025-12-09T11:07Z
TLE epoch observation values (Epoch: 2025-12-09T11:07:11.112Z)
Latitude
-0.00002°
Longitude
157.28951°
Altitude
541.377 km
Speed
7.594 km/s
True Right ascension
02h 50m 08s
True Declination
0° 00' 00"
Sunlit
Object was in full shadow at epoch
Visualization orbit readout
Latitude
Unknown
Longitude
Unknown
Altitude
Unknown
Speed
Unknown
Apparent Right ascension
Unknown
Apparent Declination
Unknown
Sunlit
N/A
Visualization observer readout
Local Sidereal Time
15:16:27
Azimuth
Unknown
Elevation
Unknown
Doppler factor
Unknown
Orbital elements
Apogee altitude
548.381 km
Perigee altitude
547.029 km
Semi-major axis
6,925.842 km
Eccentricity
0.0001
Inclination
24.0002°
RAAN
42.5335°
Arg. of periapsis
149.9653°
True anomaly
210.08499°
Mean anomaly
210.0906°
Eccentric anomaly
210.0878°
Mean motion
3.7656 °/min
Orbital period
95.6 mins
BSTAR
0.00051898
Loading maneuver chart data...
Computing Atmospheric mass density...

Documentation

Showing up to 5 results
|